This is the latest recevied weather packets stored in our database for station/object K0QED. If no packets are shown the sender has not sent any weather packets the latest 10 day(s).
| Time | Temp. | Humidity | Pressure | Rain* | Wind** | Luminosity | Snow |
|---|---|---|---|---|---|---|---|
| 1787805180 | 12.78° C | 87% | 1033.4 hPa | 0 mm | - | 0 W/m² | - |
| 1787804878 | 12.78° C | 87% | 1033.1 hPa | 0 mm | - | 0 W/m² | - |
| 1787804574 | 12.78° C | 87% | 1033.5 hPa | 0 mm | - | 0 W/m² | - |
| 1787804273 | 12.78° C | 87% | 1033.4 hPa | 0 mm | - | 0 W/m² | - |
| 1787803968 | 12.78° C | 87% | 1033.4 hPa | 0 mm | - | 0 W/m² | - |
| 1787803663 | 13.33° C | 86% | 1033.5 hPa | 0 mm | - | 0 W/m² | - |
| 1787803361 | 13.33° C | 86% | 1033.5 hPa | 0 mm | - | 0 W/m² | - |
| 1787803056 | 13.89° C | 87% | 1033.1 hPa | 0 mm | - | 0 W/m² | - |
| 1787802756 | 13.89° C | 87% | 1033.5 hPa | 0 mm | - | 0 W/m² | - |
| 1787802452 | 14.44° C | 87% | 1033.4 hPa | 0 mm | - | 0 W/m² | - |
| 1787802150 | 14.44° C | 87% | 1033.4 hPa | 0 mm | - | 0 W/m² | - |
| 1787801846 | 14.44° C | 87% | 1033.2 hPa | 0 mm | - | 0 W/m² | - |
| 1787801541 | 15° C | 87% | 1033.4 hPa | 0 mm | - | 0 W/m² | - |
| 1787801240 | 15° C | 85% | 1033.5 hPa | 0 mm | - | 0 W/m² | - |
| 1787800938 | 15° C | 85% | 1033.2 hPa | 0 mm | - | 0 W/m² | - |
| 1787800633 | 15.56° C | 83% | 1033 hPa | 0 mm | - | 0 W/m² | - |
| 1787800328 | 16.11° C | 80% | 1032.9 hPa | 0 mm | - | 0 W/m² | - |
| 1787800024 | 16.67° C | 77% | 1033.1 hPa | 0 mm | - | 0 W/m² | - |
| 1787799722 | 16.67° C | 74% | 1033.1 hPa | 0 mm | - | 0 W/m² | - |
| 1787799419 | 16.67° C | 72% | 1032.9 hPa | 0 mm | - | 0 W/m² | - |
| 1787799119 | 17.22° C | 71% | 1032.9 hPa | 0 mm | - | 0 W/m² | - |
| 1787798817 | 17.22° C | 71% | 1033 hPa | 0 mm | - | 0 W/m² | - |
| 1787798513 | 17.22° C | 72% | 1032.9 hPa | 0 mm | - | 0 W/m² | - |
| 1787798208 | 17.22° C | 72% | 1033.1 hPa | 0 mm | - | 0 W/m² | - |
| 1787797907 | 16.67° C | 71% | 1033 hPa | 0 mm | - | 0 W/m² | - |
* Rain latest hour (hover to see other rain measurements)
** Current wind speed in m/s (hover to see current wind gust speed)